Nashua, NH

10:40 PM EDT on August 22, 2019 (GMT -0400)
Boire

Weather History for KASH - May, 2019

Change the Weather History Date:

Friday, May 17, 2019

  Actual Average Record
Temperature  
Mean Temperature 55 °F -  
Max Temperature 66 °F 71 °F 93 °F (2017)
Min Temperature 44 °F 45 °F 29 °F (1952)
Degree Days  
Heating Degree Days 10    
Growing Degree Days 5 (Base 50)    
Moisture  
Dew Point 52 °F    
Average Humidity 95    
Maximum Humidity 100    
Minimum Humidity 62    
Precipitation  
Precipitation 0.15 in - - ()
Sea Level Pressure  
Sea Level Pressure 29.80 in    
Wind  
Wind Speed 2 mph ()    
Max Wind Speed 9 mph    
Max Gust Speed -    
Visibility 9.3 miles    
Events Rain    
Averages and records for this station are not official NWS values.
T = Trace of Precipitation, MM = Missing Value Source: Averaged Metar Reports

Daily Weather History Graph

Daily Weather History Graph

Search for Another Location

Airport or City:

Astronomy

May. 17, 2019 Rise Set
Actual Time 5:21 AM EDT 8:03 PM EDT
Civil Twilight 4:49 AM EDT 8:36 PM EDT
Nautical Twilight 4:08 AM EDT 9:17 PM EDT
Astronomical Twilight 3:21 AM EDT 10:05 PM EDT
Moon 6:45 PM EDT (5/17) 4:55 AM EDT (5/17)
Length of Visible Light 15h 47m
Length of Day
14h 42m
Waxing Gibbous, 98% of the Moon is Illuminated
May 17
Waxing Gibbous
May 18
Full
May 26
Last Quarter
Jun 3
New
Jun 10
First Quarter

Hourly Weather History & Observations

Time (EDT) Temp. Windchill Dew Point Humidity Pressure Visibility Wind Dir Wind Speed Gust Speed Precip Events Conditions
12:56 AM 46.0 °F 44.8 °F 46.0 °F 100% 29.91 in 10.0 mi NW 3.5 mph - N/A   Clear
1:56 AM 45.0 °F - 45.0 °F 100% 29.89 in 10.0 mi Calm Calm - N/A   Clear
2:56 AM 44.1 °F - 43.0 °F 96% 29.87 in 10.0 mi Calm Calm - N/A   Clear
3:56 AM 44.1 °F 42.5 °F 44.1 °F 100% 29.85 in 10.0 mi NW 3.5 mph - N/A   Mostly Cloudy
4:56 AM 46.0 °F - 46.0 °F 100% 29.84 in 10.0 mi Calm Calm - N/A   Overcast
5:56 AM 46.0 °F 43.9 °F 46.0 °F 100% 29.86 in 10.0 mi NW 4.6 mph - 0.00 in Rain Light Rain
6:56 AM 46.9 °F - 46.9 °F 100% 29.87 in 7.0 mi Calm Calm - 0.01 in Rain Light Rain
7:56 AM 48.0 °F - 48.0 °F 100% 29.87 in 7.0 mi Calm Calm - 0.01 in Rain Light Rain
8:56 AM 48.9 °F - 48.9 °F 100% 29.85 in 7.0 mi Calm Calm - 0.04 in Rain Rain
9:43 AM 48.2 °F - 48.2 °F 100% 29.81 in 9.0 mi Calm Calm - 0.05 in Rain Light Rain
9:56 AM 48.9 °F - 48.9 °F 100% 29.84 in 7.0 mi Calm Calm - 0.06 in Rain Light Rain
10:56 AM 50.0 °F - 50.0 °F 100% 29.83 in 4.0 mi Calm Calm - 0.02 in Rain Light Rain
11:45 AM 51.8 °F - 51.8 °F 100% 29.78 in 9.0 mi Calm Calm - 0.00 in   Overcast
11:56 AM 52.0 °F - 52.0 °F 100% 29.82 in 10.0 mi Calm Calm - 0.00 in   Overcast
12:56 PM 54.0 °F - 54.0 °F 100% 29.81 in 10.0 mi Calm Calm - N/A   Overcast
1:56 PM 57.9 °F - 55.0 °F 90% 29.79 in 10.0 mi Variable 3.5 mph - N/A   Overcast
2:03 PM 57.2 °F - 55.4 °F 94% 29.75 in 10.0 mi Variable 3.5 mph - N/A   Overcast
2:25 PM 59.0 °F - 55.4 °F 88% 29.74 in 10.0 mi Calm Calm - N/A   Overcast
2:56 PM 57.0 °F - 55.0 °F 93% 29.77 in 10.0 mi Calm Calm - 0.00 in Rain Light Rain
3:56 PM 57.9 °F - 57.0 °F 97% 29.75 in 10.0 mi Variable 4.6 mph - 0.01 in   Overcast
4:56 PM 61.0 °F - 59.0 °F 93% 29.73 in 10.0 mi Variable 4.6 mph - N/A   Mostly Cloudy
5:56 PM 66.0 °F - 60.1 °F 81% 29.71 in 10.0 mi Variable 4.6 mph - N/A   Scattered Clouds
6:56 PM 66.0 °F - 61.0 °F 84% 29.70 in 10.0 mi Variable 4.6 mph - N/A   Scattered Clouds
7:56 PM 64.0 °F - 61.0 °F 90% 29.72 in 10.0 mi Calm Calm - N/A   Scattered Clouds
8:56 PM 60.1 °F - 60.1 °F 100% 29.73 in 10.0 mi Calm Calm - 0.00 in   Clear
9:56 PM 61.0 °F - 60.1 °F 97% 29.75 in 10.0 mi Variable 4.6 mph - N/A   Clear
10:56 PM 62.1 °F - 48.9 °F 62% 29.75 in 10.0 mi West 9.2 mph - N/A   Clear
11:56 PM 55.0 °F - 51.1 °F 86% 29.78 in 10.0 mi Calm Calm - N/A   Mostly Cloudy